User: anonymous   Login
Location: Los Gatos B&B
(42.6926°N, 77.0646°W)
Time: 12:28:44
(UTC-04:00)
Language:

Cosmos 2263 Rocket - Orbit

View from above orbital plane
View from above orbital plane
View from above satellite
View from above satellite

Ground track
Ground track

The orbit data is extracted from the following two-line orbital elements,

1 22803U 93059B   14295.79391985  .00000041  00000-0  44544-4 0  4044
2 22803 070.9894 129.9451 0015506 055.0701 305.1877 14.16681045 91120
Epoch (UTC): 22 October 2014 19:03:14
Eccentricity: 0.0015506
inclination: 70.9894°
perigee height: 825 km
apogee height: 848 km
right ascension of ascending node: 129.9451°
argument of perigee: 55.0701°
revolutions per day: 14.16681045
mean anomaly at epoch: 305.1877°
orbit number at epoch: 9112

The dashed part of the orbit path shows where the satellite is in the earth's shadow,  

DLR